Ithaca, NY

5:57 AM EDT on July 30, 2016 (GMT -0400)
Tompkins County

Weather History for KITH - March, 2014

Change the Weather History Date:

Friday, March 14, 2014

  Actual Average Record
Temperature  
Mean Temperature 26 °F -  
Max Temperature 45 °F 39 °F 74 °F (1990)
Min Temperature 8 °F 24 °F 1 °F (1960)
Degree Days  
Heating Degree Days 38    
Moisture  
Dew Point 16 °F    
Average Humidity 57    
Maximum Humidity 84    
Minimum Humidity 42    
Precipitation  
Precipitation 0.00 in - - ()
Sea Level Pressure  
Sea Level Pressure 29.93 in    
Wind  
Wind Speed 8 mph (SSE)    
Max Wind Speed 21 mph    
Max Gust Speed 26 mph    
Visibility 10 miles    
Events      
Averages and records for this station are not official NWS values.
T = Trace of Precipitation, MM = Missing Value Source: NWS Daily Summary

Daily Weather History Graph

Daily Weather History Graph

Search for Another Location

Airport or City:

Trip Planner

Search our weather history database for the weather conditions in past years. The results will help you decide how hot, cold, wet, or windy it might be!

Date:

Astronomy

Mar. 14, 2014 Rise Set
Actual Time 7:19 AM EDT 7:11 PM EDT
Civil Twilight 6:51 AM EDT 7:39 PM EDT
Nautical Twilight 6:18 AM EDT 8:11 PM EDT
Astronomical Twilight 5:45 AM EDT 8:45 PM EDT
Moon 5:29 PM EDT (3/14) 6:00 AM EDT (3/14)
Length of Visible Light 12h 47m
Length of Day
11h 51m
Waxing Gibbous, 96% of the Moon is Illuminated
Mar 14
Waxing Gibbous
Mar 16
Full
Mar 23
Last Quarter
Mar 30
New
Apr 7
First Quarter

Hourly Weather History & Observations

Time (EDT) Temp. Windchill Dew Point Humidity Pressure Visibility Wind Dir Wind Speed Gust Speed Precip Events Conditions
12:56 AM 8.1 °F - 4.1 °F 84% 30.12 in 10.0 mi Calm Calm - N/A   Overcast
1:56 AM 10.0 °F - 5.0 °F 80% 30.10 in 10.0 mi Calm Calm - N/A   Overcast
2:56 AM 12.0 °F 5.9 °F 4.1 °F 71% 30.09 in 10.0 mi SE 3.5 mph - N/A   Overcast
3:56 AM 11.1 °F - 6.1 °F 80% 30.09 in 10.0 mi Calm Calm - N/A   Overcast
4:56 AM 15.1 °F 7.7 °F 6.1 °F 68% 30.08 in 10.0 mi SSE 4.6 mph - N/A   Overcast
5:56 AM 18.1 °F 7.9 °F 6.1 °F 59% 30.07 in 10.0 mi South 8.1 mph - N/A   Overcast
6:30 AM 17.6 °F 9.3 °F 6.8 °F 63% 30.00 in 10.0 mi SE 5.8 mph - N/A   Overcast
6:56 AM 19.0 °F 9.0 °F 7.2 °F 60% 30.06 in 10.0 mi SSE 8.1 mph - N/A   Overcast
7:56 AM 19.0 °F 9.0 °F 8.1 °F 62% 30.06 in 10.0 mi SSE 8.1 mph - N/A   Overcast
8:56 AM 22.1 °F 10.6 °F 10.0 °F 60% 30.05 in 10.0 mi South 11.5 mph - N/A   Overcast
9:56 AM 24.1 °F 13.7 °F 13.1 °F 63% 30.03 in 10.0 mi SSE 10.4 mph - N/A   Overcast
10:56 AM 28.0 °F 17.5 °F 15.1 °F 58% 30.01 in 10.0 mi South 12.7 mph - N/A   Mostly Cloudy
11:56 AM 32.9 °F 23.2 °F 18.1 °F 55% 29.97 in 10.0 mi South 13.8 mph 19.6 mph N/A   Clear
12:56 PM 37.9 °F 30.5 °F 19.0 °F 47% 29.93 in 10.0 mi South 11.5 mph 19.6 mph N/A   Clear
1:56 PM 39.9 °F 31.4 °F 22.1 °F 49% 29.88 in 10.0 mi South 16.1 mph 24.2 mph N/A   Clear
2:56 PM 43.0 °F 34.8 °F 23.0 °F 45% 29.83 in 10.0 mi South 18.4 mph 23.0 mph N/A   Clear
3:56 PM 43.9 °F 36.5 °F 25.2 °F 48% 29.81 in 10.0 mi South 16.1 mph - N/A   Clear
4:56 PM 45.9 °F 38.0 °F 25.2 °F 44% 29.77 in 10.0 mi South 20.7 mph 26.5 mph N/A   Clear
5:56 PM 45.9 °F 39.4 °F 24.1 °F 42% 29.76 in 10.0 mi South 15.0 mph 24.2 mph N/A   Clear
6:56 PM 43.9 °F 36.5 °F 24.1 °F 46% 29.76 in 10.0 mi South 16.1 mph 20.7 mph N/A   Clear
7:56 PM 41.9 °F 35.9 °F 23.0 °F 47% 29.77 in 10.0 mi South 10.4 mph - N/A   Clear
8:56 PM 41.0 °F 33.5 °F 23.0 °F 49% 29.77 in 10.0 mi South 13.8 mph - N/A   Scattered Clouds
9:56 PM 39.9 °F 30.8 °F 23.0 °F 51% 29.75 in 10.0 mi SSE 18.4 mph - N/A   Mostly Cloudy
10:56 PM 39.9 °F 31.1 °F 23.0 °F 51% 29.70 in 10.0 mi South 17.3 mph 26.5 mph N/A   Overcast
11:56 PM 39.9 °F 31.1 °F 23.0 °F 51% 29.67 in 10.0 mi South 17.3 mph 23.0 mph N/A   Clear